Flag for Poland Weather past 2 weeks in Szczecin, Poland

Now
64 °F

Sunny.


Feels Like: 64 °F
Forecast: 50 / 66 °F
Wind: 9 mph from West

Location: Szczecin Airport

Current Time: Aug 23, 2014 at 7:37:31 PM

Latest Report: Aug 23, 2014 at 7:00 PM


Visibility: 10 mi

Pressure: 29.83 "Hg

Humidity: 46%

Dew point: 43 °F

Location of SzczecinLocation

Historic Weather in Szczecin — Graph

°F

Szczecin temperature yesterday

Maximum temperature yesterday: 68 °F (at 12:30 PM)
Minimum temperature yesterday: 45 °F (at 5:00 AM)
Average temperature yesterday: 58 °F

Past Weeks' High & Low Weather Summary

 TemperatureHumidityPressure
High88 °F (Aug 9, 2:00 PM)100% (Aug 9, 2:30 AM)30.01 "Hg (Aug 9, 2:30 AM)
Low45 °F (Aug 22, 5:00 AM)33% (Aug 9, 2:00 PM)29.53 "Hg (Aug 18, 6:00 PM)
Average62 °F73%29.81 "Hg
* Reported Aug 8 6:00 PM — Aug 23 6:30 PM, Szczecin, Weather by CustomWeather, © 2014

Note: Actual official high and low records may vary slightly from our data, if they occured in-between our weather recording intervals... More about our weather records

Advertising

Szczecin weather history for previous 24 hours

 ConditionsComfort  
Time TempWeatherWind HumidityBarometerVisibility
6:30 PM
Aug 23
66 °FPassing clouds.9 mph43%29.83 "HgN/A
6:00 PM66 °FPassing clouds.9 mph43%29.83 "HgN/A
5:30 PM66 °FPassing clouds.9 mph43%29.83 "HgN/A
5:00 PM66 °FPassing clouds.12 mph46%29.83 "HgN/A
4:30 PM66 °FPassing clouds.10 mph43%29.83 "HgN/A
4:00 PM66 °FPassing clouds.9 mph46%29.83 "HgN/A
3:30 PM66 °FPassing clouds.10 mph43%29.86 "HgN/A
3:00 PM66 °FScattered clouds.8 mph46%29.86 "HgN/A
2:30 PM64 °FScattered clouds.10 mph49%29.86 "HgN/A
2:00 PM64 °FScattered clouds.12 mph49%29.86 "HgN/A
1:30 PM64 °FScattered clouds.14 mph56%29.86 "HgN/A
1:00 PM64 °FScattered clouds.12 mph52%29.86 "HgN/A
12:30 PM64 °FPassing clouds.13 mph52%29.86 "HgN/A
12:00 PM64 °FPassing clouds.9 mph56%29.86 "HgN/A
11:30 AM61 °FPassing clouds.10 mph63%29.86 "HgN/A
11:00 AM61 °FPassing clouds.12 mph63%29.86 "HgN/A
10:30 AM61 °FPassing clouds.12 mph68%29.86 "HgN/A
10:00 AM59 °FPassing clouds.12 mph72%29.83 "HgN/A
9:30 AM59 °FPassing clouds.8 mph72%29.83 "HgN/A
9:00 AM57 °FPassing clouds.10 mph77%29.83 "HgN/A
8:30 AM57 °FPassing clouds.9 mph77%29.83 "HgN/A
8:00 AM57 °FPassing clouds.7 mph77%29.83 "HgN/A
7:30 AM55 °FSunny.5 mph82%29.83 "Hg10 mi
7:00 AM54 °FSunny.2 mph82%29.83 "Hg10 mi
6:30 AM54 °FClear.3 mph82%29.83 "Hg10 mi
6:00 AM55 °FClear.5 mph77%29.80 "Hg10 mi
5:30 AM55 °FClear.5 mph77%29.80 "Hg10 mi
4:30 AM55 °FClear.3 mph67%29.80 "Hg10 mi
4:00 AM55 °FClear.3 mph67%29.80 "Hg10 mi
3:30 AM55 °FClear.6 mph67%29.80 "Hg10 mi
3:00 AM55 °FClear.6 mph67%29.80 "Hg10 mi
2:30 AM55 °FClear.6 mph72%29.83 "Hg10 mi
2:00 AM55 °FClear.6 mph67%29.83 "Hg10 mi
1:30 AM55 °FClear.6 mph72%29.83 "Hg10 mi
1:00 AM57 °FClear.6 mph63%29.83 "Hg10 mi
12:30 AM59 °FClear.6 mph63%29.83 "Hg10 mi
12:00 AM57 °FClear.6 mph67%29.83 "Hg10 mi
11:30 PM
Aug 22
57 °FClear.5 mph72%29.83 "Hg10 mi
11:00 PM59 °FClear.5 mph68%29.86 "Hg10 mi
10:30 PM57 °FClear.6 mph67%29.86 "Hg10 mi
10:00 PM57 °FClear.5 mph67%29.86 "Hg10 mi
9:30 PM59 °FClear.3 mph63%29.86 "Hg10 mi
9:00 PM63 °FSunny.3 mph56%29.86 "Hg10 mi
8:30 PM63 °FSunny.3 mph52%29.86 "Hg10 mi
8:00 PM64 °FSunny.3 mph49%29.86 "Hg10 mi
7:30 PM64 °FSunny.3 mph46%29.86 "Hg10 mi
7:00 PM66 °FSunny.5 mph43%29.86 "Hg10 mi
Weather by CustomWeather, © 2014

See weather overviewHow to use our weather pages